Retour au catalogue

DECIMALSAT-1

ActifScienceSSO
NORAD 68457·PAYLOAD·🇮🇹 Italy
Ce nom de satellite n'a pas encore été confirmé par des sources officielles.

Lancé Mar 30, 2026 depuis Vandenberg Space Force Base

Loading…

Prochains Passages (prochaines 24 heures)

TLE

FraisSource: Space-Track

Époque: Sep 13, 2026, 19:59 UTC

1 68457U 26067AT  26256.83307989  .00009142  00000-0  41621-3 0  9992
2 68457  97.4643 214.4094 0003416  68.5398 291.6202 15.20914596 25418

Suivez DECIMALSAT-1 en temps réel avec AllMySat

Download on the App Store